This is the latest recevied weather packets stored in our database for station/object K5GTX. If no packets are shown the sender has not sent any weather packets the latest 10 day(s).
| Time | Temp. | Humidity | Pressure | Rain* | Wind** | Luminosity | Snow |
|---|---|---|---|---|---|---|---|
| 1777640463 | 13.33° C | 99% | 1024 hPa | 0 mm | - | 11 W/m² | - |
| 1777640159 | 13.33° C | 99% | 1023.7 hPa | 0 mm | - | 12 W/m² | - |
| 1777639856 | 13.33° C | 99% | 1023.8 hPa | 0 mm | - | 10 W/m² | - |
| 1777639554 | 13.33° C | 99% | 1023.9 hPa | 0 mm | - | 5 W/m² | - |
| 1777639250 | 13.33° C | 99% | 1023.5 hPa | 0 mm | - | 10 W/m² | - |
| 1777638947 | 13.33° C | 99% | 1023.2 hPa | 0 mm | - | 7 W/m² | - |
| 1777638642 | 13.33° C | 99% | 1023.1 hPa | 0 mm | - | 6 W/m² | - |
| 1777638339 | 13.33° C | 99% | 1022.8 hPa | 0 mm | - | 10 W/m² | - |
| 1777638035 | 13.33° C | 99% | 1022.5 hPa | 0 mm | - | 5 W/m² | - |
| 1777637732 | 13.33° C | 99% | 1022.3 hPa | 0 mm | - | 4 W/m² | - |
| 1777637428 | 13.33° C | 99% | 1022.3 hPa | 0 mm | - | 5 W/m² | - |
| 1777637126 | 12.78° C | 99% | 1022.7 hPa | 0 mm | - | 2 W/m² | - |
| 1777636822 | 13.33° C | 99% | 1022.3 hPa | 0 mm | - | 4 W/m² | - |
| 1777636518 | 13.33° C | 99% | 1021.9 hPa | 0 mm | - | 2 W/m² | - |
| 1777636215 | 13.33° C | 99% | 1022.3 hPa | 0 mm | - | 0 W/m² | - |
| 1777635909 | 13.33° C | 99% | 1022.5 hPa | 0 mm | - | 0 W/m² | - |
| 1777635605 | 13.33° C | 99% | 1022.3 hPa | 0 mm | - | 0 W/m² | - |
| 1777635302 | 13.33° C | 99% | 1022.3 hPa | 0 mm | - | 0 W/m² | - |
| 1777634999 | 13.33° C | 99% | 1022.2 hPa | 0 mm | - | 0 W/m² | - |
| 1777634695 | 13.33° C | 99% | 1022 hPa | 0 mm | - | 0 W/m² | - |
| 1777634393 | 13.89° C | 99% | 1022 hPa | 0 mm | - | 0 W/m² | - |
| 1777634089 | 13.89° C | 99% | 1022.5 hPa | 0 mm | - | 0 W/m² | - |
| 1777633786 | 13.89° C | 99% | 1022.3 hPa | 0 mm | - | 0 W/m² | - |
| 1777633484 | 13.89° C | 99% | 1022.5 hPa | 0 mm | - | 0 W/m² | - |
| 1777633181 | 13.89° C | 99% | 1022.4 hPa | 0 mm | - | 0 W/m² | - |
* Rain latest hour (hover to see other rain measurements)
** Current wind speed in m/s (hover to see current wind gust speed)